TimeEDT,TemperatureF,Dew PointF,Humidity,Sea Level PressureIn,VisibilityMPH,Wind Direction,Wind SpeedMPH,Gust SpeedMPH,PrecipitationIn,Events,Conditions,WindDirDegrees,DateUTC
12:54 AM,48.2,42.8,82,30.20,10.0,North,5.8,-,N/A,Rain,Light Rain,350,2012-10-09 04:54:00
1:54 AM,48.0,42.1,80,30.20,10.0,North,5.8,-,0.00,Rain,Light Rain,350,2012-10-09 05:54:00
2:54 AM,48.0,43.0,83,30.19,6.0,North,5.8,-,0.01,Rain,Light Rain,360,2012-10-09 06:54:00
3:54 AM,46.9,44.1,90,30.18,7.0,North,4.6,-,0.03,Rain,Light Rain,360,2012-10-09 07:54:00
4:54 AM,48.0,45.0,89,30.20,6.0,West,4.6,-,0.03,,Overcast,280,2012-10-09 08:54:00
5:23 AM,48.2,44.6,87,30.19,7.0,WNW,3.5,-,0.01,,Overcast,300,2012-10-09 09:23:00
5:33 AM,48.2,44.6,87,30.19,7.0,NNW,3.5,-,0.01,Rain,Light Rain,330,2012-10-09 09:33:00
5:54 AM,48.0,45.0,89,30.19,5.0,NNW,4.6,-,0.01,Rain,Light Rain,330,2012-10-09 09:54:00
6:54 AM,48.9,45.0,86,30.18,10.0,North,5.8,-,0.00,,Mostly Cloudy,10,2012-10-09 10:54:00
7:23 AM,48.2,46.4,93,30.19,10.0,Variable,3.5,-,N/A,,Mostly Cloudy,0,2012-10-09 11:23:00
7:54 AM,48.9,46.0,90,30.19,10.0,Variable,3.5,-,N/A,,Mostly Cloudy,0,2012-10-09 11:54:00
8:54 AM,51.1,46.9,86,30.19,9.0,North,3.5,-,N/A,,Mostly Cloudy,350,2012-10-09 12:54:00
9:54 AM,53.1,48.0,83,30.20,10.0,NNE,4.6,-,N/A,,Overcast,20,2012-10-09 13:54:00
10:54 AM,54.0,48.0,80,30.19,10.0,NNE,6.9,-,N/A,,Overcast,20,2012-10-09 14:54:00
11:54 AM,57.0,48.9,74,30.17,10.0,North,4.6,-,N/A,,Mostly Cloudy,350,2012-10-09 15:54:00
12:54 PM,57.9,48.9,72,30.15,10.0,North,4.6,-,N/A,,Overcast,350,2012-10-09 16:54:00
1:54 PM,59.0,50.0,72,30.12,10.0,Calm,Calm,-,N/A,,Overcast,0,2012-10-09 17:54:00
2:54 PM,60.1,50.0,69,30.12,10.0,NNE,5.8,-,N/A,,Overcast,30,2012-10-09 18:54:00
3:54 PM,60.1,51.1,72,30.10,10.0,East,4.6,-,N/A,,Mostly Cloudy,90,2012-10-09 19:54:00
4:54 PM,60.1,51.1,72,30.10,10.0,NNE,4.6,-,N/A,,Overcast,30,2012-10-09 20:54:00
5:54 PM,59.0,51.1,75,30.10,10.0,NNE,4.6,-,N/A,,Mostly Cloudy,30,2012-10-09 21:54:00
6:38 PM,59.0,51.8,77,30.10,10.0,NNE,6.9,-,N/A,,Mostly Cloudy,20,2012-10-09 22:38:00
6:54 PM,59.0,51.8,77,30.10,10.0,NE,5.8,-,N/A,,Mostly Cloudy,50,2012-10-09 22:54:00
7:54 PM,57.9,52.0,81,30.09,10.0,NNE,4.6,-,0.00,,Overcast,30,2012-10-09 23:54:00
8:54 PM,57.9,52.0,81,30.09,6.0,NNE,3.5,-,N/A,,Haze,30,2012-10-10 00:54:00
9:54 PM,57.0,53.1,87,30.09,6.0,Calm,Calm,-,0.00,,Light Drizzle,0,2012-10-10 01:54:00
10:16 PM,57.2,53.6,88,30.08,6.0,Calm,Calm,-,0.00,,Overcast,0,2012-10-10 02:16:00
10:38 PM,55.4,53.6,94,30.08,2.5,Calm,Calm,-,0.00,,Light Drizzle,0,2012-10-10 02:38:00
10:45 PM,55.4,53.6,94,30.08,2.5,Calm,Calm,-,0.00,,Light Drizzle,0,2012-10-10 02:45:00
10:54 PM,55.9,54.0,93,30.08,2.5,Calm,Calm,-,0.00,,Light Drizzle,0,2012-10-10 02:54:00
11:07 PM,55.4,53.6,94,30.08,1.8,Calm,Calm,-,0.00,,Light Drizzle,0,2012-10-10 03:07:00
11:33 PM,55.4,53.6,94,30.06,2.0,North,3.5,-,0.00,,Overcast,10,2012-10-10 03:33:00
11:54 PM,55.9,54.0,93,30.06,2.5,Calm,Calm,-,0.00,,Overcast,0,2012-10-10 03:54:00
11:57 PM,55.4,53.6,94,30.06,3.0,Calm,Calm,-,N/A,,Overcast,0,2012-10-10 03:57:00